Simultaneous Nadir Overpasses (SNOs) Predictions

Prediction of SNOs between TERRA and METOP-C Satellite Orbit:

Table of predicted SNOs for the next 14.0 days since TLE Epoch: 7/20/2024
Index Date (TERRA) Time (TERRA) Lat,Lon (TERRA) SZA (TERRA ) Date (METOP-C) Time (METOP-C) Lat,Lon (METOP-C) SZA (METOP-C ) Distance(km) Time Diff (sec)
1 07/21/2024 05:30:22 76.30, 98.88 55.86 07/21/2024 05:29:57 76.31, 98.93 55.87 1.74 25
2 07/21/2024 06:19:30 -76.95, -91.28 123.48 07/21/2024 06:20:25 -76.95, -91.31 123.48 0.82 55
3 07/23/2024 20:00:57 75.99,-119.75 56.07 07/23/2024 20:00:24 75.98,-119.78 56.07 0.82 33
4 07/23/2024 20:50:04 -76.69, 50.15 123.22 07/23/2024 20:50:51 -76.68, 50.04 123.23 3.12 47
5 07/26/2024 10:31:28 75.87, 22.24 56.53 07/26/2024 10:30:47 75.87, 22.26 56.53 0.72 41
6 07/26/2024 11:20:35 -76.58,-167.90 122.77 07/26/2024 11:21:14 -76.57,-167.95 122.77 1.49 39
7 07/29/2024 01:02:00 75.65, 163.97 56.92 07/29/2024 01:01:12 75.65, 163.97 56.92 0.15 48
8 07/29/2024 01:51:07 -76.37, -26.23 122.37 07/29/2024 01:51:39 -76.36, -26.31 122.38 2.15 32
9 07/31/2024 15:32:34 75.29, -54.69 57.20 07/31/2024 15:31:40 75.28, -54.77 57.20 2.70 54



Historial Predications of SNOs between TERRA and METOP-C
